Location: Oberwangen
(47.4286°N, 8.9679°E)
Time: 23:06:10
(UTC+00:00)

ARIANE 5 R/B - Pass Details

Date: 20 June 2021
Orbit: 620 x 656 km, 98.1° (Epoch: 16 July)

Event Time Altitude Azimuth Distance (km) Brightness Sun altitude
Exits shadow 21:38:34 10° 208° (SSW) 2,040 4.9 -15.1°
Reaches altitude 10° 21:38:35 10° 208° (SSW) 2,035 4.9 -15.1°
Maximum altitude 21:42:19 26° 266° (W) 1,265 4.3 -15.4°
Drops below altitude 10° 21:46:08 10° 323° (NW) 2,066 6.5 -15.7°
Sets 21:48:40 0° 336° (NNW) 2,987 8.0 -15.8°
